Content
SEND FEEDBACK

Daily
Averages
Monthly
Summary
United States of America

CHERAW, COLORADO


Home > North America > United States > Colorado
Elevation: 4200 feet     Latitude: 38 03N     Longitude: 103 31W

WEATHER
 
SELECT A DAY
Number of Records: 189,447;   Date Range: 1/1/95 - 11/21/14
 
SHARE

PRINT THIS DATA

[ ← Previous Day ]
WEATHER ALMANAC - JANUARY 23, 2013
[ Next Day → ]
[ °C ]   °F
Weather ElementAverageHighLow
Temperature41.9 °F75 °F (2:53 pm)18 °F (6:53 am)
Dewpoint-4 °F18 °F (10:53 pm)-22 °F (2:53 pm)
Humidity22.6 %66 % (11:53 pm)4 % (12:53 pm)
Barometer30.14 in30.23 in (6:53 am)30.01 in (3:53 pm)
Wind Speed9.8 mph16.1 mph (10:53 pm)
Weather ElementAverage
Visibility10 mi
Wind DirectionS (182.7 °)

Weather ElementTotal
Precipitation---
Heating Degree Days18.5 (Base 65)
Averaged from 22 records on January 23, 2013
WEATHER CONDITIONS BREAKOUT
WIND DIRECTION BREAKOUT
WEATHER BY HOUR - JANUARY 23, 2013
[ °C ]   °F
Local TimeTemperatureDewpointHumidityBarometerVisibilityWind DirectionWind SpeedGust SpeedPrecipitationEventsConditions
1:53 AM19.9 °F-2.9 °F37 %30.17 in10.0 miWest (260°)6.9 mphClear
2:53 AM19.9 °F-5.1 °F33 %30.16 in10.0 miWSW (250°)6.9 mphClear
3:53 AM25.0 °F-4.0 °F28 %30.14 in10.0 miWSW (250°)11.5 mphClear
4:53 AM21.9 °F-5.1 °F30 %30.17 in10.0 miWest (270°)11.5 mphClear
5:53 AM19.9 °F-5.1 °F33 %30.20 in10.0 miWest (270°)13.8 mphClear
6:53 AM18.0 °F-6.0 °F35 %30.23 in10.0 miWest (280°)11.5 mphClear
7:53 AM24.1 °F-6.0 °F27 %30.23 in10.0 miWest (270°)12.7 mphClear
8:53 AM32.0 °F-5.1 °F20 %30.23 in10.0 miCalmClear
9:53 AM39.9 °F-6.0 °F14 %30.22 in10.0 miWest (270°)4.6 mphClear
10:53 AM54.0 °F-4.0 °F9 %30.17 in10.0 miWest (270°)9.2 mphClear
11:53 AM64.9 °F-6.0 °F6 %30.10 in10.0 miWSW (240°)10.4 mphClear
12:53 PM69.1 °F-9.0 °F4 %30.06 in10.0 miWNW (290°)9.2 mphClear
1:53 PM72.0 °F-18.0 °F4 %30.03 in10.0 miWSW (240°)11.5 mphClear
2:53 PM75.0 °F-22.0 °F4 %30.02 in10.0 miWest (280°)6.9 mphClear
3:53 PM73.0 °F-17.0 °F4 %30.01 in10.0 miNNE (20°)3.5 mphClear
4:53 PM57.0 °F-6.0 °F8 %30.06 in10.0 miENE (60°)12.7 mphClear
5:53 PM51.1 °F-5.1 °F10 %30.11 in10.0 miEast (90°)6.9 mphClear
6:53 PM46.0 °F-5.1 °F12 %30.15 in10.0 miEast (90°)11.5 mphClear
7:53 PM42.1 °F0.0 °F17 %30.16 in10.0 miEast (80°)12.7 mphClear
8:53 PM37.9 °F14.0 °F38 %30.17 in10.0 miEast (90°)11.5 mphClear
10:53 PM30.9 °F18.0 °F59 %30.19 in10.0 miEast (80°)16.1 mphClear
11:53 PM28.0 °F18.0 °F66 %30.18 in10.0 miENE (70°)13.8 mphClear
Hourly data recorded from KLHX, located miles away from Cheraw, Colorado







STORIES FROM OUR PARTNERS